RH
71 75 68 66 63 57 64 60 67 65 74 72 69 66 59 56 60 59 71 77 78 88 96 96 93 91 85 69 65 62 58 57 41 33 32 35 36 43 56 60 52 41 42 46 56 60 52 55 61
69 73 69 65 60 58 68 64 62 63 68 70 67 75 80 63 64 60 64 68 73 77 89 89 85 84 76 73 62 59 55 63 58 62 57 61 65 66 52 39 49 40 46 61 73 69 70 64 61
67 69 64 62 63 61 64 68 69 72 70 69 71 71 81 64 58 62 64 67 69 69 71 69 66 65 66 63 53 59 58 61 60 64 69 67 68 54 31 30 32 37 46 45 61 78 85 84 70
64 68 62 59 65 63 59 64 67 62 74 79 78 74 62 67 64 61 60 59 58 64 64 58 52 53 54 51 58 60 62 66 68 62 60 57 40 35 39 37 37 43 49 56 51 72 72 76 70
59 63 66 62 65 70 63 60 65 61 68 79 75 63 62 66 62 58 49 52 57 62 65 65 58 51 48 51 62 64 61 63 64 66 60 55 51 48 50 55 53 50 47 49 50 52 51 46 47
50 62 64 64 58 63 64 59 62 61 62 66 65 64 56 63 59 52 53 53 56 59 57 58 66 62 56 61 63 63 67 67 64 64 57 49 48 45 41 38 42 44 43 44 46 53 58 43 42
64 49 71 62 62 70 58 66 66 62 66 54 56 54 55 59 60 44 44 45 51 57 55 45 58 68 62 62 63 63 68 63 63 59 55 50 42 37 31 30 32 34 37 40 45 51 58 44 35
76 67 70 62 66 69 73 74 77 72 59 59 60 52 45 49 51 50 45 46 50 51 55 43 54 66 63 68 63 66 61 62 61 55 54 49 41 36 34 32 30 34 37 40 44 44 41 36 28
78 79 68 66 76 70 80 76 76 71 62 67 60 54 51 62 60 65 64 58 48 50 47 42 61 64 66 66 68 66 55 56 48 51 52 48 42 40 38 37 35 36 38 39 48 43 36 24 32
77 73 74 65 76 79 81 82 64 67 66 49 53 47 73 69 64 65 58 50 45 43 35 47 61 62 63 68 65 58 55 60 57 62 58 53 48 46 42 38 36 34 35 40 42 39 22 30 34
84 81 74 73 68 76 77 85 79 65 64 64 60 52 64 60 60 69 65 49 43 42 46 58 59 62 74 69 65 59 53 55 54 58 63 61 55 46 42 40 35 42 40 40 43 28 30 34 39
82 84 88 91 91 80 81 76 78 65 68 77 74 57 51 57 61 70 65 54 40 39 50 56 61 69 72 73 80 81 68 56 57 57 63 70 70 69 58 54 50 60 47 34 37 25 34 38 48
74 86 91 86 93 82 89 82 70 71 76 80 69 59 66 57 77 76 60 63 46 41 46 52 58 65 64 79 81 75 68 56 54 57 61 58 64 57 54 39 57 52 49 28 24 32 34 44 51
62 74 74 92 86 84 83 89 78 70 81 81 72 54 49 61 79 80 69 60 46 43 43 53 52 59 60 71 78 78 68 62 60 75 78 65 59 50 54 42 48 53 76 26 32 33 39 50 44
71 77 89 90 86 85 84 80 84 73 83 87 73 52 54 67 69 78 74 68 50 44 45 53 55 51 56 67 68 72 78 70 69 73 77 64 57 59 70 63 52 53 64 36 36 37 42 52 39
43 54 82 85 82 82 83 85 82 78 84 85 77 56 53 60 64 73 74 72 61 39 43 49 54 57 61 77 65 61 65 78 57 69 76 75 67 62 77 88 60 59 47 42 40 41 44 53 41
41 56 68 88 89 94 90 91 96 81 86 84 78 64 56 64 72 80 79 77 57 33 44 44 56 59 64 72 65 59 56 70 68 74 69 50 60 62 75 71 79 65 52 45 38 42 46 51 44
52 53 56 73 86 85 96 92 99 89 99 89 80 68 59 53 56 68 78 75 68 43 39 43 53 60 59 68 58 53 51 58 54 61 64 68 50 81 77 79 68 76 54 43 40 42 48 53 44
35 36 60 76 70 66 72 86 94 89 89 92 85 73 61 58 72 76 85 78 58 56 28 37 48 57 56 68 51 46 46 50 52 57 52 67 52 48 53 82 63 61 65 44 43 44 47 52 47
32 35 67 72 68 76 83 76 89 92 98 93 88 83 69 65 76 78 85 79 66 63 48 30 44 50 63 59 57 59 55 53 50 57 60 67 67 58 45 72 75 62 67 42 44 45 47 48 46
32 54 64 62 72 74 80 84 72 96 94 95 95 91 78 69 75 75 77 79 70 67 64 40 43 47 53 64 61 61 54 54 56 59 52 67 63 58 54 60 64 60 47 43 48 50 43 47 51
33 60 61 62 67 73 80 89 85 73 77 92 98 93 84 75 83 76 75 73 68 87 58 43 44 46 50 60 54 67 71 65 54 49 51 53 52 60 49 44 47 51 71 52 55 59 39 45 51
23 60 62 68 70 78 92 84 85 85 73 72 99 89 73 78 81 70 70 70 69 82 63 38 46 47 49 63 58 59 52 48 45 52 50 47 46 48 54 53 48 60 51 48 50 51 63 48 48
17 52 61 72 83 92 78 85 82 76 65 79 90 85 79 76 83 74 72 78 70 83 66 34 33 41 49 76 57 57 53 57 66 66 61 52 49 50 44 56 58 62 45 28 27 52 60 58 53
26 42 78 82 92 85 79 93 61 64 68 66 75 77 80 75 74 76 81 80 76 71 68 42 34 41 42 47 54 64 73 73 81 78 72 70 71 59 44 42 50 56 54 53 42 26 26 54 58
34 47 52 65 87 81 90 74 51 51 63 70 81 81 79 81 76 81 81 79 75 74 71 52 33 44 51 52 55 57 73 81 82 77 80 84 74 82 53 37 41 48 51 53 50 45 42 28 33
59 58 48 57 80 81 68 56 49 63 67 72 75 86 88 84 71 80 81 84 76 75 71 59 58 29 45 63 66 68 71 69 71 78 82 80 80 73 63 58 43 42 47 48 49 52 46 53 56
52 52 56 60 81 79 68 63 46 54 63 89 95 78 74 80 81 81 79 79 79 77 69 72 74 67 32 33 50 56 63 65 80 79 80 84 85 86 79 71 69 60 64 56 51 47 46 50 55
47 56 50 47 54 79 76 44 35 44 48 58 61 60 69 84 73 80 77 79 79 73 69 72 62 68 49 40 32 30 33 32 47 77 76 75 81 85 80 78 74 79 81 63 51 49 49 44 40
33 44 44 47 39 52 56 43 39 39 48 52 54 57 61 62 68 81 76 79 79 76 71 75 81 57 70 89 74 47 34 27 26 31 40 65 75 74 71 78 82 77 79 74 50 46 47 42 40
Wind_Speed
9 5 7 9 6 9 10 9 6 15 12 12 7 9 6 8 8 7 18 17 17 16 15 12 18 16 14 13 11 10 11 13 15 16 17 17 17 16 16 14 15 15 15 16 16 16 15 15 14
6 3 7 6 9 17 8 11 13 9 9 8 3 2 1 1 4 15 16 15 14 14 14 12 10 11 12 11 6 9 11 13 15 15 17 16 16 15 15 14 14 15 16 17 17 15 14 15 13
5 6 7 6 14 13 13 12 10 10 7 3 2 3 1 7 18 13 14 13 12 11 11 10 8 7 7 8 8 10 11 12 14 15 16 15 14 13 14 13 14 14 16 16 16 15 15 14 15
4 8 7 6 14 12 15 17 13 9 8 7 3 5 12 18 12 15 11 12 12 12 11 9 8 8 7 8 11 13 13 14 14 16 15 14 14 13 13 13 13 14 15 15 15 13 12 11 12
5 9 7 13 14 17 15 11 8 6 8 10 7 5 7 15 14 13 11 12 11 10 10 10 10 9 10 11 13 14 14 15 15 14 14 14 14 14 14 12 12 14 14 15 14 13 12 12 13
7 11 8 17 16 16 13 8 8 4 6 5 7 9 15 16 13 10 11 11 12 11 10 11 11 11 12 12 14 15 15 15 14 14 14 14 14 13 13 13 12 14 14 15 14 13 13 13 14
5 9 9 14 20 21 13 8 4 3 6 5 6 15 17 15 13 9 11 10 11 12 12 13 12 12 13 14 15 15 14 14 14 14 14 14 14 14 13 13 14 14 14 14 14 14 13 15 14
4 11 13 20 21 18 13 10 7 3 6 12 12 4 10 17 15 11 12 12 12 12 12 14 14 13 14 17 16 16 15 15 13 13 13 13 13 14 13 13 13 14 15 15 15 15 16 16 17
5 9 12 23 21 17 15 13 11 5 2 8 4 9 10 15 13 11 9 10 11 12 13 15 14 14 17 17 16 14 14 14 13 14 14 15 14 14 13 12 13 13 14 15 17 18 17 17 18
4 6 11 19 19 19 19 14 6 10 5 5 6 10 12 14 11 13 12 12 13 13 14 15 15 17 19 16 15 15 13 14 13 14 14 15 14 15 14 13 13 13 13 15 17 18 17 19 18
1 2 11 19 19 17 19 16 10 7 7 3 7 6 14 16 13 15 12 11 14 15 16 16 18 20 18 16 14 14 13 13 13 13 13 15 14 13 13 13 13 13 13 13 16 18 19 19 17
2 2 3 14 22 16 17 18 17 10 4 6 4 1 8 12 13 17 13 13 13 15 14 16 19 18 18 16 14 13 12 11 12 13 13 14 13 11 11 10 10 10 11 14 17 19 19 18 18
6 6 10 16 11 21 18 18 17 13 10 6 5 6 9 16 19 17 13 14 11 11 13 14 16 17 16 15 12 12 12 13 14 13 12 13 10 9 13 10 13 10 15 16 17 19 19 18 18
5 6 10 14 19 25 23 21 18 17 15 12 8 8 13 15 14 13 11 12 10 8 12 13 14 15 14 12 11 11 13 16 15 13 11 10 14 16 12 14 15 17 16 18 18 19 17 16 17
2 4 6 7 24 25 20 25 22 20 19 17 12 11 16 15 15 12 9 10 9 7 10 13 13 13 13 11 13 12 11 12 11 13 11 13 14 10 12 12 14 16 14 16 19 19 17 15 17
1 4 6 5 22 25 23 21 21 26 26 19 18 16 16 17 14 11 10 8 7 6 7 13 13 13 15 12 12 11 11 14 13 11 11 9 9 9 14 15 13 16 16 18 19 18 16 16 17
3 2 4 4 9 26 32 19 20 22 28 23 23 18 18 17 15 11 7 7 6 3 6 9 12 13 15 13 11 10 13 13 12 11 10 9 11 13 16 14 13 18 19 19 18 18 16 15 16
3 1 3 2 5 8 6 29 19 20 30 30 26 21 19 16 15 10 8 5 3 2 6 9 10 14 17 13 13 13 11 13 13 11 10 11 14 16 10 13 14 15 17 17 17 17 15 14 15
8 6 4 5 7 4 13 13 24 19 29 36 30 26 22 16 13 12 11 6 2 3 6 9 11 14 14 13 12 12 11 10 12 11 9 13 11 14 12 11 18 12 13 16 14 14 13 11 11
10 8 5 2 2 5 4 8 20 26 31 37 36 32 26 23 19 15 13 9 5 4 3 10 12 14 14 15 14 12 11 10 10 9 10 10 10 10 13 13 14 15 13 17 14 13 12 10 10
11 7 5 5 8 6 6 13 11 27 32 38 38 37 30 27 22 19 15 11 6 4 3 7 12 14 15 15 14 12 10 7 7 6 7 8 8 9 12 15 13 13 13 14 13 11 13 10 10
9 11 8 7 7 4 9 3 20 24 31 33 39 38 38 30 25 23 15 11 7 7 3 7 14 16 16 14 13 12 10 9 8 8 8 8 7 7 7 11 11 9 10 12 14 10 14 13 10
10 13 10 7 10 7 11 6 9 27 27 26 46 45 39 33 28 26 18 9 8 9 4 7 13 16 17 15 14 12 11 12 12 9 8 8 9 9 10 9 9 8 10 12 14 15 12 12 14
11 13 12 9 7 5 7 13 10 20 16 25 52 49 42 36 32 27 23 16 13 12 8 8 12 16 18 17 14 12 10 9 8 8 7 8 8 9 11 12 13 12 12 11 13 17 17 16 15
16 18 3 1 2 5 5 10 14 10 10 14 49 50 47 39 35 31 32 23 18 13 10 9 13 15 16 17 16 14 12 9 9 7 8 8 9 10 11 13 13 14 12 9 11 15 17 16 16
20 24 8 6 4 3 5 9 5 11 17 20 45 48 50 44 39 34 30 24 21 16 14 11 12 16 13 14 14 15 13 12 14 11 11 10 12 13 12 13 15 14 13 13 11 12 13 16 18
22 27 23 4 3 2 6 12 19 14 15 20 38 52 49 45 40 38 37 31 24 19 18 16 11 13 16 16 16 15 14 15 14 12 11 13 13 13 13 13 14 15 15 14 15 13 13 15 16
14 19 11 11 4 4 7 11 16 10 18 10 29 44 47 48 44 42 37 33 28 21 19 16 15 11 12 16 17 17 17 16 15 14 13 13 13 13 15 11 15 15 14 15 15 15 14 17 19
19 18 15 9 5 6 2 7 7 8 8 12 15 12 25 36 32 43 37 36 30 26 24 20 17 16 14 13 15 16 17 18 17 17 17 16 14 14 12 13 14 15 14 15 15 17 17 18 20
14 20 21 15 7 6 5 10 6 9 11 8 12 14 17 26 34 39 37 37 35 32 28 24 19 19 16 14 14 17 18 18 19 19 20 19 17 16 14 15 15 14 20 15 13 14 16 16 17
Wind_Direction
143 144 144 128 124 128 114 133 137 144 115 96 95 82 65 95 76 116 130 126 124 129 147 121 117 110 111 102 85 104 102 111 114 113 115 113 112 111 113 112 113 110 109 109 105 102 106 105 103
166 155 141 122 138 142 119 147 155 143 122 130 126 121 79 10 23 141 135 132 131 129 137 130 120 118 124 136 103 115 115 110 109 110 111 112 111 112 116 116 112 111 110 109 102 99 99 100 100
185 160 125 107 146 134 133 143 154 150 168 167 186 70 327 116 128 135 139 143 148 153 154 155 155 161 150 141 131 129 121 111 109 111 110 113 117 120 115 117 114 114 112 111 111 101 101 97 94
187 154 103 131 157 147 144 139 138 121 150 191 217 124 130 126 134 136 142 143 151 158 163 168 165 167 161 143 132 132 125 117 113 111 114 116 121 120 121 117 121 115 116 115 118 115 102 103 95
175 179 116 140 149 142 145 140 138 107 145 180 170 148 139 125 132 139 139 141 143 149 154 152 145 147 144 137 134 131 125 121 115 115 112 116 120 121 121 118 124 120 123 120 120 120 111 110 105
186 184 149 150 157 160 157 147 124 122 109 138 198 203 149 130 131 131 142 139 144 145 154 149 145 143 139 137 132 130 125 119 115 115 118 119 120 121 120 126 122 123 126 123 126 119 116 117 104
210 193 156 159 159 161 160 138 134 75 73 61 114 166 151 138 139 133 132 132 138 141 148 149 147 142 141 135 133 131 123 120 122 123 120 122 121 117 117 119 121 125 125 126 125 130 124 115 107
211 166 149 159 163 170 158 147 164 69 66 106 138 199 164 129 119 119 126 132 137 139 137 140 145 142 138 137 135 133 128 130 125 117 114 111 113 113 117 117 119 125 126 124 126 128 120 115 112
183 151 161 165 170 170 174 166 174 124 136 114 86 159 173 133 109 104 108 128 132 135 135 140 143 142 137 136 133 129 127 127 120 117 114 117 116 115 113 116 117 119 125 128 126 126 122 119 116
132 200 164 166 175 178 181 191 213 174 162 116 112 159 155 137 124 110 99 109 128 131 136 138 140 142 137 137 136 131 131 129 126 118 117 119 123 122 121 120 117 123 128 125 127 128 122 120 115
179 54 201 191 181 194 190 187 215 197 193 124 53 153 156 144 132 117 106 100 131 133 139 140 142 144 141 137 138 138 136 137 133 125 121 121 125 126 128 128 128 124 115 136 132 128 127 123 117
329 8 244 261 223 193 198 188 191 196 123 102 95 175 169 154 120 111 99 87 127 137 143 144 146 147 143 140 141 136 138 132 133 138 136 134 129 132 135 135 138 131 119 126 135 132 130 125 120
292 306 316 313 228 190 189 194 195 197 203 165 145 159 168 145 128 119 103 86 99 142 147 149 154 155 147 143 137 132 130 131 133 139 149 154 158 141 147 134 143 135 125 125 136 135 131 128 129
291 312 301 317 192 187 192 198 206 211 203 202 174 158 171 160 145 132 97 74 79 127 156 153 158 164 159 153 145 142 131 130 137 140 130 142 145 125 123 136 139 135 128 136 139 136 133 133 134
311 317 313 302 189 194 196 206 206 211 202 203 177 156 157 156 139 118 92 64 64 106 153 161 161 169 165 156 151 146 135 145 132 152 152 141 142 131 131 133 141 146 143 139 140 140 139 141 136
307 348 350 339 201 206 208 219 215 212 209 208 191 173 152 141 135 120 100 64 45 110 143 178 172 174 170 155 154 152 143 135 139 148 159 160 151 139 136 142 141 144 137 140 144 145 146 147 144
230 258 340 324 228 222 210 229 212 200 200 213 197 187 167 160 163 155 118 74 71 113 148 172 184 184 180 179 168 156 152 140 142 143 139 129 147 142 147 141 133 137 142 149 150 150 154 154 151
141 97 333 323 262 237 228 218 199 195 203 216 200 198 186 172 156 153 144 87 119 105 169 166 184 184 171 184 176 166 161 151 153 155 157 141 144 152 149 168 145 146 155 159 160 159 156 154 154
279 303 287 125 70 266 253 265 195 214 203 203 205 203 200 171 169 176 178 161 162 158 167 178 164 188 186 180 170 157 161 160 160 166 167 150 148 180 186 177 182 181 173 174 172 165 160 161 159
264 278 236 156 230 205 203 237 227 212 204 203 206 209 207 195 194 192 191 190 179 168 142 178 166 176 186 178 173 171 184 180 165 156 164 170 157 150 174 178 172 186 200 190 180 174 165 173 179
247 252 233 257 217 231 218 204 192 202 208 206 206 213 216 210 196 201 198 197 205 182 132 164 170 178 190 187 185 183 181 178 179 174 176 178 181 172 173 178 178 189 196 198 188 195 185 183 187
230 210 242 247 226 243 209 218 213 213 238 238 214 217 215 211 210 210 206 205 209 175 170 170 185 182 188 185 187 186 187 187 192 187 174 179 187 196 199 205 197 201 218 216 211 230 213 201 196
231 213 249 242 230 251 209 217 226 220 241 270 212 217 212 207 205 206 205 203 191 193 189 179 185 189 187 188 194 184 178 181 177 180 184 188 204 215 223 212 216 232 217 219 218 222 226 227 225
227 215 207 201 224 270 229 205 224 215 255 226 205 214 213 208 211 208 209 205 200 196 207 189 189 193 192 188 189 191 187 188 183 190 194 196 200 205 219 224 228 229 224 226 221 222 237 247 238
216 203 153 252 215 236 205 199 252 252 223 229 208 209 212 209 204 207 210 205 206 207 211 199 191 190 192 194 196 195 203 207 213 212 216 209 210 211 212 219 225 219 225 231 237 235 238 241 247
202 198 197 208 194 239 197 233 240 254 226 217 213 205 213 212 212 211 214 205 210 206 213 208 189 190 196 197 199 202 206 211 217 225 229 220 205 213 214 214 220 224 230 238 238 241 246 246 249
205 204 221 284 153 215 233 265 278 241 213 240 218 213 215 215 217 212 212 209 208 209 213 211 183 187 196 197 205 208 208 213 221 220 223 219 233 221 205 214 224 226 229 232 240 245 244 250 252
246 223 207 224 163 241 265 272 260 246 224 224 195 200 214 217 218 216 214 203 205 204 206 203 198 186 190 202 208 212 215 214 217 219 221 224 222 226 227 230 225 221 235 241 245 247 250 252 255
223 219 223 252 228 166 287 281 335 231 183 135 150 190 205 218 233 222 217 205 201 201 204 208 213 209 190 197 213 217 220 219 219 216 227 228 228 226 235 234 228 225 236 243 247 249 250 256 258
244 231 227 235 246 218 253 283 332 237 210 222 212 223 235 235 225 223 207 208 207 207 199 208 217 214 215 227 224 228 228 228 226 225 225 229 228 231 236 238 240 243 247 240 244 253 258 262 262